Terminal Aerodrome Forecast
Issued by NWS Bismarck, ND

Home | Current Version | Previous Version | Graphics & Text | Print | Product List | Glossary On
Versions: 1 2 3 4 5 6 7 8 9 10 11 12 13 14 15
743
FTUS43 KBIS 041935 AAA
TAFISN
TAF AMD
KISN 041935Z 0420/0518 24012KT P6SM SKC=

USA.gov is the U.S. government's official web portal to all federal, state and local government web resources and services.